TimeCST,TemperatureF,Dew PointF,Humidity,Sea Level PressureIn,VisibilityMPH,Wind Direction,Wind SpeedMPH,Gust SpeedMPH,PrecipitationIn,Events,Conditions,WindDirDegrees,DateUTC
12:07 AM,46.0,43.0,89,29.85,5.0,NW,18.4,25.3,0.00,Rain,Light Rain,320,2013-11-27 06:07:00
12:37 AM,45.0,42.1,90,29.86,9.0,NW,12.7,-,0.00,,Overcast,310,2013-11-27 06:37:00
12:53 AM,45.0,42.1,90,29.86,9.0,NW,10.4,19.6,0.00,,Overcast,310,2013-11-27 06:53:00
1:36 AM,45.0,42.1,90,29.87,5.0,NW,9.2,-,N/A,,Overcast,320,2013-11-27 07:36:00
1:53 AM,45.0,42.1,90,29.88,4.0,NW,13.8,20.7,0.00,Rain,Light Rain,320,2013-11-27 07:53:00
2:28 AM,44.1,41.0,89,29.90,10.0,NW,13.8,-,0.00,,Overcast,310,2013-11-27 08:28:00
2:53 AM,44.1,39.9,85,29.91,10.0,NW,13.8,-,0.00,Rain,Light Rain,320,2013-11-27 08:53:00
3:53 AM,43.0,39.0,86,29.93,10.0,NW,17.3,29.9,0.00,,Overcast,320,2013-11-27 09:53:00
4:33 AM,42.1,37.9,85,29.94,10.0,NNW,16.1,23.0,0.00,,Overcast,330,2013-11-27 10:33:00
4:48 AM,42.8,37.4,81,29.96,10.0,NNW,17.3,-,0.00,,Overcast,330,2013-11-27 10:48:00
4:53 AM,42.1,37.9,85,29.96,10.0,NNW,13.8,21.9,0.00,,Overcast,330,2013-11-27 10:53:00
5:53 AM,39.9,35.1,83,30.00,10.0,NNW,13.8,28.8,N/A,,Overcast,330,2013-11-27 11:53:00
6:13 AM,39.9,33.1,77,30.02,10.0,North,16.1,31.1,N/A,,Overcast,350,2013-11-27 12:13:00
6:53 AM,39.0,32.0,76,30.04,10.0,NNW,15.0,27.6,N/A,,Overcast,340,2013-11-27 12:53:00
7:53 AM,39.0,32.0,76,30.07,10.0,NNW,21.9,28.8,N/A,,Overcast,330,2013-11-27 13:53:00
8:53 AM,39.9,30.0,68,30.10,10.0,NNW,16.1,26.5,N/A,,Overcast,340,2013-11-27 14:53:00
9:53 AM,39.9,28.9,65,30.14,10.0,NNW,19.6,28.8,N/A,,Overcast,330,2013-11-27 15:53:00
10:53 AM,44.1,30.0,58,30.13,10.0,NNW,17.3,24.2,N/A,,Mostly Cloudy,330,2013-11-27 16:53:00
11:50 AM,44.6,30.2,57,30.12,10.0,NNW,12.7,24.2,N/A,,Scattered Clouds,340,2013-11-27 17:50:00
11:53 AM,45.0,30.0,56,30.12,10.0,NW,15.0,19.6,N/A,,Scattered Clouds,320,2013-11-27 17:53:00
12:53 PM,48.0,28.0,46,30.11,10.0,NNW,15.0,21.9,N/A,,Clear,330,2013-11-27 18:53:00
1:53 PM,48.9,26.1,41,30.12,10.0,North,12.7,23.0,N/A,,Clear,350,2013-11-27 19:53:00
2:53 PM,48.9,27.0,43,30.14,10.0,NNW,16.1,20.7,N/A,,Clear,330,2013-11-27 20:53:00
3:53 PM,46.9,26.1,44,30.17,10.0,NNW,11.5,-,N/A,,Clear,330,2013-11-27 21:53:00
4:53 PM,43.0,23.0,45,30.19,10.0,North,8.1,17.3,N/A,,Clear,350,2013-11-27 22:53:00
5:53 PM,39.9,26.1,58,30.24,10.0,NNW,4.6,-,N/A,,Clear,340,2013-11-27 23:53:00
6:53 PM,37.9,26.1,62,30.28,10.0,NNW,4.6,-,N/A,,Clear,330,2013-11-28 00:53:00
7:53 PM,36.0,26.1,67,30.32,10.0,NNW,5.8,-,N/A,,Clear,340,2013-11-28 01:53:00
8:53 PM,35.1,25.0,67,30.34,10.0,NNW,6.9,-,N/A,,Clear,330,2013-11-28 02:53:00
9:53 PM,33.1,25.0,72,30.36,10.0,NNW,6.9,-,N/A,,Clear,330,2013-11-28 03:53:00
10:53 PM,33.1,24.1,70,30.36,10.0,NNW,5.8,-,N/A,,Clear,340,2013-11-28 04:53:00
11:53 PM,32.0,23.0,69,30.37,10.0,NNW,5.8,-,N/A,,Clear,340,2013-11-28 05:53:00